Location: Cisewo
(53.3833°N, 14.9000°E)
Time: 11:29:10
(UTC+00:00)

Cosmos 1782 - Pass Details

Date: 18 April 2021
Orbit: 535 x 552 km, 82.5° (Epoch: 14 May)

Event Time Altitude Azimuth Distance (km) Brightness Sun altitude
Exits shadow 22:54:10 57° 23° (NNE) 658 3.4 -25.4°
Drops below altitude 10° 22:57:27 10° 13° (NNE) 1,842 6.5 -25.4°
Sets 22:59:38 0° 12° (NNE) 2,739 7.7 -25.5°
